owner,sensor,date,latitude,longitude,vertical_datum,direction_of_sea_water_velocity,sea_water_speed,upward_sea_water_velocity,qcFlag 
TABS,ioos:station:wmo:42045:1,2003-03-01T00:00:00Z,26.2168,-96.4998,2.0,296.1597286,8.211047436,-99999.0,'11133222,11111222,99999999' 
TABS,ioos:station:wmo:42045:1,2003-03-01T00:30:00Z,26.2168,-96.4998,2.0,296.4296386,9.436233359,-99999.0,'11133222,11111222,99999999' 
TABS,ioos:station:wmo:42045:1,2003-03-01T01:00:00Z,26.2168,-96.4998,2.0,312.5382602,11.52233483,-99999.0,'11111222,11111222,99999999' 
TABS,ioos:station:wmo:42045:1,2003-03-01T01:30:00Z,26.2168,-96.4998,2.0,316.5042778,15.35657839,-99999.0,'11111222,11111222,99999999' 
TABS,ioos:station:wmo:42045:1,2003-03-01T02:00:00Z,26.2168,-96.4998,2.0,321.2282907,13.55747027,-99999.0,'11111222,11111222,99999999' 
TABS,ioos:station:wmo:42045:1,2003-03-01T02:30:00Z,26.2168,-96.4998,2.0,326.6915334,14.58616468,-99999.0,'11111222,11111222,99999999' 
TABS,ioos:station:wmo:42045:1,2003-03-01T03:00:00Z,26.2168,-96.4998,2.0,322.6543592,17.57260652,-99999.0,'11111222,11111222,99999999' 
TABS,ioos:station:wmo:42045:1,2003-03-01T03:30:00Z,26.2168,-96.4998,2.0,332.6837549,18.41336743,-99999.0,'11111222,11111222,99999999' 
TABS,ioos:station:wmo:42045:1,2003-03-01T04:00:00Z,26.2168,-96.4998,2.0,328.3258726,19.63466832,-99999.0,'11111222,11111222,99999999' 
TABS,ioos:station:wmo:42045:1,2003-03-01T04:30:00Z,26.2168,-96.4998,2.0,341.7251001,20.40941939,-99999.0,'11111222,11111222,99999999' 
TABS,ioos:station:wmo:42045:1,2003-03-01T05:00:00Z,26.2168,-96.4998,2.0,336.7937898,19.08407713,-99999.0,'11111222,11111222,99999999' 
TABS,ioos:station:wmo:42045:1,2003-03-01T05:30:00Z,26.2168,-96.4998,2.0,347.4347256,20.3166262,-99999.0,'11111222,11111222,99999999' 
TABS,ioos:station:wmo:42045:1,2003-03-01T06:00:00Z,26.2168,-96.4998,2.0,350.7432002,19.27097299,-99999.0,'11111222,11111222,99999999' 
TABS,ioos:station:wmo:42045:1,2003-03-01T06:30:00Z,26.2168,-96.4998,2.0,352.1747569,19.68330257,-99999.0,'11111222,11111222,99999999' 
TABS,ioos:station:wmo:42045:1,2003-03-01T07:00:00Z,26.2168,-96.4998,2.0,2.361271832,19.17627962,-99999.0,'11111222,11111222,99999999' 
TABS,ioos:station:wmo:42045:1,2003-03-01T07:30:00Z,26.2168,-96.4998,2.0,356.2845388,18.97989726,-99999.0,'11111222,11111222,99999999' 
TABS,ioos:station:wmo:42045:1,2003-03-01T08:00:00Z,26.2168,-96.4998,2.0,6.241290318,21.70866187,-99999.0,'11111222,11111222,99999999' 
TABS,ioos:station:wmo:42045:1,2003-03-01T08:30:00Z,26.2168,-96.4998,2.0,3.875186584,21.90006621,-99999.0,'11111222,11111222,99999999' 
TABS,ioos:station:wmo:42045:1,2003-03-01T09:00:00Z,26.2168,-96.4998,2.0,11.8679146,21.15212755,-99999.0,'11111222,11111222,99999999' 
TABS,ioos:station:wmo:42045:1,2003-03-01T09:30:00Z,26.2168,-96.4998,2.0,16.80629504,20.02530899,-99999.0,'11111222,11111222,99999999' 
TABS,ioos:station:wmo:42045:1,2003-03-01T10:00:00Z,26.2168,-96.4998,2.0,18.50826729,19.81484797,-99999.0,'11111222,11111222,99999999' 
TABS,ioos:station:wmo:42045:1,2003-03-01T10:30:00Z,26.2168,-96.4998,2.0,24.31095027,18.87360326,-99999.0,'11111222,11111222,99999999' 
TABS,ioos:station:wmo:42045:1,2003-03-01T11:00:00Z,26.2168,-96.4998,2.0,36.39278713,17.52860805,-99999.0,'11111222,11111222,99999999' 
TABS,ioos:station:wmo:42045:1,2003-03-01T11:30:00Z,26.2168,-96.4998,2.0,47.83366575,14.73290535,-99999.0,'11111222,11111222,99999999' 
TABS,ioos:station:wmo:42045:1,2003-03-01T12:00:00Z,26.2168,-96.4998,2.0,50.04653529,14.87153321,-99999.0,'11111222,11111222,99999999' 
TABS,ioos:station:wmo:42045:1,2003-03-01T12:30:00Z,26.2168,-96.4998,2.0,44.7124789,14.08574457,-99999.0,'11111222,11111222,99999999' 
TABS,ioos:station:wmo:42045:1,2003-03-01T13:00:00Z,26.2168,-96.4998,2.0,68.10142547,12.0386461,-99999.0,'11111222,11111222,99999999' 
TABS,ioos:station:wmo:42045:1,2003-03-01T13:30:00Z,26.2168,-96.4998,2.0,70.46339075,11.84175663,-99999.0,'11111222,11111222,99999999' 
TABS,ioos:station:wmo:42045:1,2003-03-01T14:00:00Z,26.2168,-96.4998,2.0,73.86986703,10.22242633,-99999.0,'11111222,11111222,99999999' 
TABS,ioos:station:wmo:42045:1,2003-03-01T14:30:00Z,26.2168,-96.4998,2.0,80.65840686,11.70523387,-99999.0,'11111222,11111222,99999999' 
TABS,ioos:station:wmo:42045:1,2003-03-01T15:00:00Z,26.2168,-96.4998,2.0,84.37897752,10.8220377,-99999.0,'11111222,11111222,99999999' 
TABS,ioos:station:wmo:42045:1,2003-03-01T15:30:00Z,26.2168,-96.4998,2.0,85.58951651,11.18311674,-99999.0,'11111222,11111222,99999999' 
TABS,ioos:station:wmo:42045:1,2003-03-01T16:00:00Z,26.2168,-96.4998,2.0,99.23742998,12.14753473,-99999.0,'11111222,11111222,99999999' 
TABS,ioos:station:wmo:42045:1,2003-03-01T16:30:00Z,26.2168,-96.4998,2.0,106.8887406,9.844592424,-99999.0,'11133222,11111222,99999999' 
TABS,ioos:station:wmo:42045:1,2003-03-01T17:00:00Z,26.2168,-96.4998,2.0,108.0876636,10.43570793,-99999.0,'11111222,11111222,99999999' 
TABS,ioos:station:wmo:42045:1,2003-03-01T17:30:00Z,26.2168,-96.4998,2.0,123.0663041,12.99462196,-99999.0,'11111222,11111222,99999999' 
TABS,ioos:station:wmo:42045:1,2003-03-01T18:00:00Z,26.2168,-96.4998,2.0,128.9445028,10.05459099,-99999.0,'11111222,11111222,99999999' 
TABS,ioos:station:wmo:42045:1,2003-03-01T18:30:00Z,26.2168,-96.4998,2.0,134.2316859,10.02060377,-99999.0,'11111222,11111222,99999999' 
TABS,ioos:station:wmo:42045:1,2003-03-01T19:00:00Z,26.2168,-96.4998,2.0,145.9250049,11.97624733,-99999.0,'11111222,11111222,99999999' 
TABS,ioos:station:wmo:42045:1,2003-03-01T19:30:00Z,26.2168,-96.4998,2.0,143.7279265,13.60674098,-99999.0,'11111222,11111222,99999999' 
TABS,ioos:station:wmo:42045:1,2003-03-01T20:00:00Z,26.2168,-96.4998,2.0,143.4883133,11.8322314,-99999.0,'11111222,11111222,99999999' 
TABS,ioos:station:wmo:42045:1,2003-03-01T20:30:00Z,26.2168,-96.4998,2.0,149.8838763,13.21369744,-99999.0,'11111222,11111222,99999999' 
TABS,ioos:station:wmo:42045:1,2003-03-01T21:00:00Z,26.2168,-96.4998,2.0,158.009437,14.07392625,-99999.0,'11111222,11111222,99999999' 
TABS,ioos:station:wmo:42045:1,2003-03-01T21:30:00Z,26.2168,-96.4998,2.0,156.1419344,13.35080896,-99999.0,'11111222,11111222,99999999' 
TABS,ioos:station:wmo:42045:1,2003-03-01T22:00:00Z,26.2168,-96.4998,2.0,149.8402483,14.9081253,-99999.0,'11111222,11111222,99999999' 
TABS,ioos:station:wmo:42045:1,2003-03-01T22:30:00Z,26.2168,-96.4998,2.0,157.1877005,14.21161849,-99999.0,'11111222,11111222,99999999' 
TABS,ioos:station:wmo:42045:1,2003-03-01T23:00:00Z,26.2168,-96.4998,2.0,165.0859511,14.72606533,-99999.0,'11111222,11111222,99999999' 
TABS,ioos:station:wmo:42045:1,2003-03-01T23:30:00Z,26.2168,-96.4998,2.0,163.5527227,17.41249264,-99999.0,'11111222,11111222,99999999' 
TABS,ioos:station:wmo:42045:1,2003-03-02T00:00:00Z,26.2168,-96.4998,2.0,177.9585089,14.87944219,-99999.0,'11111222,11111222,99999999' 
TABS,ioos:station:wmo:42045:1,2003-03-02T00:30:00Z,26.2168,-96.4998,2.0,179.2092953,15.22144868,-99999.0,'11111222,11111222,99999999' 
TABS,ioos:station:wmo:42045:1,2003-03-02T01:00:00Z,26.2168,-96.4998,2.0,184.1261124,14.03638486,-99999.0,'11111222,11111222,99999999' 
TABS,ioos:station:wmo:42045:1,2003-03-02T01:30:00Z,26.2168,-96.4998,2.0,186.1066208,14.10001418,-99999.0,'11111222,11111222,99999999' 
TABS,ioos:station:wmo:42045:1,2003-03-02T02:00:00Z,26.2168,-96.4998,2.0,204.4658776,12.82127139,-99999.0,'11111222,11111222,99999999' 
TABS,ioos:station:wmo:42045:1,2003-03-02T02:30:00Z,26.2168,-96.4998,2.0,205.2890708,14.86459216,-99999.0,'11111222,11111222,99999999' 
TABS,ioos:station:wmo:42045:1,2003-03-02T03:00:00Z,26.2168,-96.4998,2.0,210.3682553,12.87680861,-99999.0,'11111222,11111222,99999999' 
TABS,ioos:station:wmo:42045:1,2003-03-02T03:30:00Z,26.2168,-96.4998,2.0,202.7124231,14.24463408,-99999.0,'11111222,11111222,99999999' 
TABS,ioos:station:wmo:42045:1,2003-03-02T04:00:00Z,26.2168,-96.4998,2.0,204.5817312,13.05303796,-99999.0,'11111222,11111222,99999999' 
TABS,ioos:station:wmo:42045:1,2003-03-02T04:30:00Z,26.2168,-96.4998,2.0,210.1097482,10.70441498,-99999.0,'11111222,11111222,99999999' 
TABS,ioos:station:wmo:42045:1,2003-03-02T05:00:00Z,26.2168,-96.4998,2.0,215.6455213,11.70267064,-99999.0,'11111222,11111222,99999999' 
TABS,ioos:station:wmo:42045:1,2003-03-02T05:30:00Z,26.2168,-96.4998,2.0,215.7585335,7.529415648,-99999.0,'11133222,11111222,99999999' 
TABS,ioos:station:wmo:42045:1,2003-03-02T06:00:00Z,26.2168,-96.4998,2.0,218.4798978,7.472951224,-99999.0,'11133222,11111222,99999999' 
TABS,ioos:station:wmo:42045:1,2003-03-02T06:30:00Z,26.2168,-96.4998,2.0,234.8201415,6.508832461,-99999.0,'11133222,11111222,99999999' 
TABS,ioos:station:wmo:42045:1,2003-03-02T07:00:00Z,26.2168,-96.4998,2.0,197.6679788,6.853269293,-99999.0,'11133222,11111222,99999999' 
TABS,ioos:station:wmo:42045:1,2003-03-02T07:30:00Z,26.2168,-96.4998,2.0,193.2402785,6.461772203,-99999.0,'11133222,11111222,99999999' 
TABS,ioos:station:wmo:42045:1,2003-03-02T08:00:00Z,26.2168,-96.4998,2.0,206.72848,7.826269865,-99999.0,'11133222,11111222,99999999' 
TABS,ioos:station:wmo:42045:1,2003-03-02T08:30:00Z,26.2168,-96.4998,2.0,217.8176254,6.164843875,-99999.0,'11133222,11111222,99999999' 
TABS,ioos:station:wmo:42045:1,2003-03-02T09:00:00Z,26.2168,-96.4998,2.0,248.0235925,6.092692344,-99999.0,'11133222,11111222,99999999' 
TABS,ioos:station:wmo:42045:1,2003-03-02T09:30:00Z,26.2168,-96.4998,2.0,208.5615992,2.823632412,-99999.0,'11133222,11111222,99999999' 
TABS,ioos:station:wmo:42045:1,2003-03-02T10:00:00Z,26.2168,-96.4998,2.0,72.56724827,2.16965435,-99999.0,'11133222,11111222,99999999' 
TABS,ioos:station:wmo:42045:1,2003-03-02T10:30:00Z,26.2168,-96.4998,2.0,101.1038075,2.180825532,-99999.0,'11133222,11111222,99999999' 
TABS,ioos:station:wmo:42045:1,2003-03-02T11:00:00Z,26.2168,-96.4998,2.0,67.17707277,5.207725031,-99999.0,'11133222,11111222,99999999' 
TABS,ioos:station:wmo:42045:1,2003-03-02T11:30:00Z,26.2168,-96.4998,2.0,73.2016675,4.982619793,-99999.0,'11133222,11111222,99999999' 
TABS,ioos:station:wmo:42045:1,2003-03-02T12:00:00Z,26.2168,-96.4998,2.0,77.27227917,5.31048962,-99999.0,'11133222,11111222,99999999' 
TABS,ioos:station:wmo:42045:1,2003-03-02T12:30:00Z,26.2168,-96.4998,2.0,59.10543001,5.686897221,-99999.0,'11133222,11111222,99999999' 
TABS,ioos:station:wmo:42045:1,2003-03-02T13:00:00Z,26.2168,-96.4998,2.0,98.03942575,5.362704542,-99999.0,'11133222,11111222,99999999' 
TABS,ioos:station:wmo:42045:1,2003-03-02T13:30:00Z,26.2168,-96.4998,2.0,99.31177,5.00596644,-99999.0,'11133222,11111222,99999999' 
TABS,ioos:station:wmo:42045:1,2003-03-02T14:00:00Z,26.2168,-96.4998,2.0,114.7896728,5.485471721,-99999.0,'11133222,11111222,99999999' 
TABS,ioos:station:wmo:42045:1,2003-03-02T14:30:00Z,26.2168,-96.4998,2.0,99.07597638,6.339369054,-99999.0,'11133222,11111222,99999999' 
TABS,ioos:station:wmo:42045:1,2003-03-02T15:00:00Z,26.2168,-96.4998,2.0,117.9961153,6.625299993,-99999.0,'11133222,11111222,99999999' 
TABS,ioos:station:wmo:42045:1,2003-03-02T15:30:00Z,26.2168,-96.4998,2.0,118.8187044,9.439035968,-99999.0,'11133222,11111222,99999999' 
TABS,ioos:station:wmo:42045:1,2003-03-02T16:00:00Z,26.2168,-96.4998,2.0,137.6628893,7.305231003,-99999.0,'11133222,11111222,99999999' 
TABS,ioos:station:wmo:42045:1,2003-03-02T16:30:00Z,26.2168,-96.4998,2.0,138.1766276,7.273162998,-99999.0,'11133222,11111222,99999999' 
TABS,ioos:station:wmo:42045:1,2003-03-02T17:00:00Z,26.2168,-96.4998,2.0,129.7144604,8.059931761,-99999.0,'11133222,11111222,99999999' 
TABS,ioos:station:wmo:42045:1,2003-03-02T17:30:00Z,26.2168,-96.4998,2.0,133.535513,9.407592678,-99999.0,'11133222,11111222,99999999' 
TABS,ioos:station:wmo:42045:1,2003-03-02T18:00:00Z,26.2168,-96.4998,2.0,143.0150806,8.976018048,-99999.0,'11133222,11111222,99999999' 
TABS,ioos:station:wmo:42045:1,2003-03-02T18:30:00Z,26.2168,-96.4998,2.0,148.3040556,10.20156851,-99999.0,'11111222,11111222,99999999' 
TABS,ioos:station:wmo:42045:1,2003-03-02T19:00:00Z,26.2168,-96.4998,2.0,144.3635341,10.12634682,-99999.0,'11111222,11111222,99999999' 
TABS,ioos:station:wmo:42045:1,2003-03-02T19:30:00Z,26.2168,-96.4998,2.0,144.7165579,6.28440928,-99999.0,'11133222,11111222,99999999' 
TABS,ioos:station:wmo:42045:1,2003-03-02T20:00:00Z,26.2168,-96.4998,2.0,167.7556945,5.894073294,-99999.0,'11133222,11111222,99999999' 
TABS,ioos:station:wmo:42045:1,2003-03-02T20:30:00Z,26.2168,-96.4998,2.0,158.84312,3.795853,-99999.0,'11133222,11111222,99999999' 
TABS,ioos:station:wmo:42045:1,2003-03-02T21:00:00Z,26.2168,-96.4998,2.0,137.1892054,3.516887829,-99999.0,'11133222,11111222,99999999' 
TABS,ioos:station:wmo:42045:1,2003-03-02T21:30:00Z,26.2168,-96.4998,2.0,165.3789497,5.229340303,-99999.0,'11133222,11111222,99999999' 
TABS,ioos:station:wmo:42045:1,2003-03-02T22:00:00Z,26.2168,-96.4998,2.0,175.1918468,4.295113503,-99999.0,'11133222,11111222,99999999' 
TABS,ioos:station:wmo:42045:1,2003-03-02T22:30:00Z,26.2168,-96.4998,2.0,193.5918568,5.318966065,-99999.0,'11133222,11111222,99999999' 
TABS,ioos:station:wmo:42045:1,2003-03-02T23:00:00Z,26.2168,-96.4998,2.0,170.800647,6.44286427,-99999.0,'11133222,11111222,99999999' 
TABS,ioos:station:wmo:42045:1,2003-03-02T23:30:00Z,26.2168,-96.4998,2.0,206.1889628,7.499933333,-99999.0,'11133222,11111222,99999999' 
TABS,ioos:station:wmo:42045:1,2003-03-03T00:00:00Z,26.2168,-96.4998,2.0,203.0268095,8.334056635,-99999.0,'11133222,11111222,99999999' 
TABS,ioos:station:wmo:42045:1,2003-03-03T00:30:00Z,26.2168,-96.4998,2.0,207.9147596,10.06062622,-99999.0,'11111222,11111222,99999999' 
TABS,ioos:station:wmo:42045:1,2003-03-03T01:00:00Z,26.2168,-96.4998,2.0,212.7489944,9.797326166,-99999.0,'11133222,11111222,99999999' 
TABS,ioos:station:wmo:42045:1,2003-03-03T01:30:00Z,26.2168,-96.4998,2.0,217.0510905,14.52207285,-99999.0,'11111222,11111222,99999999' 
TABS,ioos:station:wmo:42045:1,2003-03-03T02:00:00Z,26.2168,-96.4998,2.0,208.5123449,13.55392932,-99999.0,'11111222,11111222,99999999' 
TABS,ioos:station:wmo:42045:1,2003-03-03T02:30:00Z,26.2168,-96.4998,2.0,219.1368707,16.68306027,-99999.0,'11111222,11111222,99999999' 
TABS,ioos:station:wmo:42045:1,2003-03-03T03:00:00Z,26.2168,-96.4998,2.0,219.5955515,15.39141644,-99999.0,'11111222,11111222,99999999' 
TABS,ioos:station:wmo:42045:1,2003-03-03T03:30:00Z,26.2168,-96.4998,2.0,218.0601068,17.61580256,-99999.0,'11111222,11111222,99999999' 
TABS,ioos:station:wmo:42045:1,2003-03-03T04:00:00Z,26.2168,-96.4998,2.0,221.5797092,17.78004499,-99999.0,'11111222,11111222,99999999' 
TABS,ioos:station:wmo:42045:1,2003-03-03T04:30:00Z,26.2168,-96.4998,2.0,221.1629495,14.26603309,-99999.0,'11111222,11111222,99999999' 
TABS,ioos:station:wmo:42045:1,2003-03-03T05:00:00Z,26.2168,-96.4998,2.0,233.1449735,15.07200053,-99999.0,'11111222,11111222,99999999' 
TABS,ioos:station:wmo:42045:1,2003-03-03T05:30:00Z,26.2168,-96.4998,2.0,241.4241053,14.40467285,-99999.0,'11111222,11111222,99999999' 
TABS,ioos:station:wmo:42045:1,2003-03-03T06:00:00Z,26.2168,-96.4998,2.0,236.9283098,16.6946758,-99999.0,'11111222,11111222,99999999' 
TABS,ioos:station:wmo:42045:1,2003-03-03T06:30:00Z,26.2168,-96.4998,2.0,245.0219644,13.23813053,-99999.0,'11111222,11111222,99999999' 
TABS,ioos:station:wmo:42045:1,2003-03-03T07:00:00Z,26.2168,-96.4998,2.0,259.9324208,11.21263573,-99999.0,'11111222,11111222,99999999' 
TABS,ioos:station:wmo:42045:1,2003-03-03T07:30:00Z,26.2168,-96.4998,2.0,264.0662588,12.28581703,-99999.0,'11111222,11111222,99999999' 
TABS,ioos:station:wmo:42045:1,2003-03-03T08:00:00Z,26.2168,-96.4998,2.0,268.5334658,10.94358259,-99999.0,'11111222,11111222,99999999' 
TABS,ioos:station:wmo:42045:1,2003-03-03T08:30:00Z,26.2168,-96.4998,2.0,275.9918828,11.97541649,-99999.0,'11111222,11111222,99999999' 
TABS,ioos:station:wmo:42045:1,2003-03-03T09:00:00Z,26.2168,-96.4998,2.0,286.0162033,13.41052199,-99999.0,'11111222,11111222,99999999' 
TABS,ioos:station:wmo:42045:1,2003-03-03T09:30:00Z,26.2168,-96.4998,2.0,298.2734002,12.60360663,-99999.0,'11111222,11111222,99999999' 
TABS,ioos:station:wmo:42045:1,2003-03-03T10:00:00Z,26.2168,-96.4998,2.0,288.0538699,11.87461578,-99999.0,'11111222,11111222,99999999' 
TABS,ioos:station:wmo:42045:1,2003-03-03T10:30:00Z,26.2168,-96.4998,2.0,307.0701846,12.60807678,-99999.0,'11111222,11111222,99999999' 
TABS,ioos:station:wmo:42045:1,2003-03-03T11:00:00Z,26.2168,-96.4998,2.0,331.2317081,10.70078969,-99999.0,'11111222,11111222,99999999' 
TABS,ioos:station:wmo:42045:1,2003-03-03T11:30:00Z,26.2168,-96.4998,2.0,334.6334293,7.912938771,-99999.0,'11133222,11111222,99999999' 
TABS,ioos:station:wmo:42045:1,2003-03-03T12:00:00Z,26.2168,-96.4998,2.0,345.8537312,6.301087208,-99999.0,'11133222,11111222,99999999' 
TABS,ioos:station:wmo:42045:1,2003-03-03T12:30:00Z,26.2168,-96.4998,2.0,6.194736226,6.950582709,-99999.0,'11133222,11111222,99999999' 
TABS,ioos:station:wmo:42045:1,2003-03-03T13:00:00Z,26.2168,-96.4998,2.0,11.48411574,4.52049776,-99999.0,'11133222,11111222,99999999' 
TABS,ioos:station:wmo:42045:1,2003-03-03T13:30:00Z,26.2168,-96.4998,2.0,38.06577254,6.325377459,-99999.0,'11133222,11111222,99999999' 
TABS,ioos:station:wmo:42045:1,2003-03-03T14:00:00Z,26.2168,-96.4998,2.0,34.73959503,8.177652475,-99999.0,'11133222,11111222,99999999' 
TABS,ioos:station:wmo:42045:1,2003-03-03T14:30:00Z,26.2168,-96.4998,2.0,49.04170919,8.527701918,-99999.0,'11133222,11111222,99999999' 
TABS,ioos:station:wmo:42045:1,2003-03-03T15:00:00Z,26.2168,-96.4998,2.0,51.07643584,8.81766409,-99999.0,'11133222,11111222,99999999' 
TABS,ioos:station:wmo:42045:1,2003-03-03T15:30:00Z,26.2168,-96.4998,2.0,56.56532437,10.58101129,-99999.0,'11111222,11111222,99999999' 
TABS,ioos:station:wmo:42045:1,2003-03-03T16:00:00Z,26.2168,-96.4998,2.0,68.07115278,10.01457438,-99999.0,'11111222,11111222,99999999' 
TABS,ioos:station:wmo:42045:1,2003-03-03T16:30:00Z,26.2168,-96.4998,2.0,63.40675866,9.069492819,-99999.0,'11133222,11111222,99999999' 
TABS,ioos:station:wmo:42045:1,2003-03-03T17:00:00Z,26.2168,-96.4998,2.0,87.36757129,13.06378582,-99999.0,'11111222,11111222,99999999' 
TABS,ioos:station:wmo:42045:1,2003-03-03T17:30:00Z,26.2168,-96.4998,2.0,80.41528986,12.31186826,-99999.0,'11111222,11111222,99999999' 
TABS,ioos:station:wmo:42045:1,2003-03-03T18:00:00Z,26.2168,-96.4998,2.0,81.76174376,11.23594678,-99999.0,'11111222,11111222,99999999' 
TABS,ioos:station:wmo:42045:1,2003-03-03T18:30:00Z,26.2168,-96.4998,2.0,82.53414327,11.46721413,-99999.0,'11111222,11111222,99999999' 
TABS,ioos:station:wmo:42045:1,2003-03-03T19:00:00Z,26.2168,-96.4998,2.0,86.33690399,15.65197751,-99999.0,'11111222,11111222,99999999' 
TABS,ioos:station:wmo:42045:1,2003-03-03T19:30:00Z,26.2168,-96.4998,2.0,83.40595557,14.45562866,-99999.0,'11111222,11111222,99999999' 
TABS,ioos:station:wmo:42045:1,2003-03-03T20:00:00Z,26.2168,-96.4998,2.0,90.20202894,14.18008815,-99999.0,'11111222,11111222,99999999' 
TABS,ioos:station:wmo:42045:1,2003-03-03T20:30:00Z,26.2168,-96.4998,2.0,95.42989971,15.64018222,-99999.0,'11111222,11111222,99999999' 
TABS,ioos:station:wmo:42045:1,2003-03-03T21:00:00Z,26.2168,-96.4998,2.0,106.3876665,17.61564362,-99999.0,'11111222,11111222,99999999' 
TABS,ioos:station:wmo:42045:1,2003-03-03T21:30:00Z,26.2168,-96.4998,2.0,121.3187614,21.58522643,-99999.0,'11111222,11111222,99999999' 
TABS,ioos:station:wmo:42045:1,2003-03-03T22:00:00Z,26.2168,-96.4998,2.0,127.0743051,30.8201963,-99999.0,'11111222,11111222,99999999' 
TABS,ioos:station:wmo:42045:1,2003-03-03T22:30:00Z,26.2168,-96.4998,2.0,137.6596945,35.35099716,-99999.0,'11111222,11111222,99999999' 
TABS,ioos:station:wmo:42045:1,2003-03-03T23:00:00Z,26.2168,-96.4998,2.0,147.0793181,38.82419478,-99999.0,'11111222,11111222,99999999' 
TABS,ioos:station:wmo:42045:1,2003-03-03T23:30:00Z,26.2168,-96.4998,2.0,159.2053837,39.94180767,-99999.0,'11111222,11111222,99999999' 
TABS,ioos:station:wmo:42045:1,2003-03-04T00:00:00Z,26.2168,-96.4998,2.0,169.6684813,38.69739655,-99999.0,'11111222,11111222,99999999' 
TABS,ioos:station:wmo:42045:1,2003-03-04T00:30:00Z,26.2168,-96.4998,2.0,172.1148259,42.64317179,-99999.0,'11111222,11111222,99999999' 
TABS,ioos:station:wmo:42045:1,2003-03-04T01:00:00Z,26.2168,-96.4998,2.0,178.7683553,45.6005318,-99999.0,'11111222,11111222,99999999' 
TABS,ioos:station:wmo:42045:1,2003-03-04T01:30:00Z,26.2168,-96.4998,2.0,185.2097595,46.69290738,-99999.0,'11111222,11111222,99999999' 
TABS,ioos:station:wmo:42045:1,2003-03-04T02:00:00Z,26.2168,-96.4998,2.0,189.1034168,45.69559388,-99999.0,'11111222,11111222,99999999' 
TABS,ioos:station:wmo:42045:1,2003-03-04T02:30:00Z,26.2168,-96.4998,2.0,192.4131492,50.61323246,-99999.0,'11111222,11111222,99999999' 
TABS,ioos:station:wmo:42045:1,2003-03-04T03:00:00Z,26.2168,-96.4998,2.0,192.7138243,47.29976427,-99999.0,'11111222,11111222,99999999' 
TABS,ioos:station:wmo:42045:1,2003-03-04T03:30:00Z,26.2168,-96.4998,2.0,201.2189598,50.25732384,-99999.0,'11111222,11111222,99999999' 
TABS,ioos:station:wmo:42045:1,2003-03-04T04:00:00Z,26.2168,-96.4998,2.0,201.2906751,53.56594627,-99999.0,'11111222,11111222,99999999' 
TABS,ioos:station:wmo:42045:1,2003-03-04T04:30:00Z,26.2168,-96.4998,2.0,199.6388932,57.78124955,-99999.0,'11111222,11111222,99999999' 
TABS,ioos:station:wmo:42045:1,2003-03-04T05:00:00Z,26.2168,-96.4998,2.0,208.0133474,53.24885163,-99999.0,'11111222,11111222,99999999' 
TABS,ioos:station:wmo:42045:1,2003-03-04T05:30:00Z,26.2168,-96.4998,2.0,212.9899218,49.95447928,-99999.0,'11111222,11111222,99999999' 
TABS,ioos:station:wmo:42045:1,2003-03-04T06:00:00Z,26.2168,-96.4998,2.0,217.147633,44.51252408,-99999.0,'11111222,11111222,99999999' 
TABS,ioos:station:wmo:42045:1,2003-03-04T06:30:00Z,26.2168,-96.4998,2.0,225.0186376,42.75167833,-99999.0,'11111222,11111222,99999999' 
TABS,ioos:station:wmo:42045:1,2003-03-04T07:00:00Z,26.2168,-96.4998,2.0,229.6318992,40.45135844,-99999.0,'11111222,11111222,99999999' 
TABS,ioos:station:wmo:42045:1,2003-03-04T07:30:00Z,26.2168,-96.4998,2.0,234.2359914,38.019086,-99999.0,'11111222,11111222,99999999' 
TABS,ioos:station:wmo:42045:1,2003-03-04T08:00:00Z,26.2168,-96.4998,2.0,239.8900857,35.66194891,-99999.0,'11111222,11111222,99999999' 
TABS,ioos:station:wmo:42045:1,2003-03-04T08:30:00Z,26.2168,-96.4998,2.0,247.7396327,32.94526521,-99999.0,'11111222,11111222,99999999' 
TABS,ioos:station:wmo:42045:1,2003-03-04T09:00:00Z,26.2168,-96.4998,2.0,244.6534624,28.59236262,-99999.0,'11111222,11111222,99999999' 
TABS,ioos:station:wmo:42045:1,2003-03-04T09:30:00Z,26.2168,-96.4998,2.0,249.0521575,27.41167634,-99999.0,'11111222,11111222,99999999' 
TABS,ioos:station:wmo:42045:1,2003-03-04T10:00:00Z,26.2168,-96.4998,2.0,254.0784002,22.78399877,-99999.0,'11111222,11111222,99999999' 
TABS,ioos:station:wmo:42045:1,2003-03-04T10:30:00Z,26.2168,-96.4998,2.0,246.2167728,21.37517251,-99999.0,'11111222,11111222,99999999' 
TABS,ioos:station:wmo:42045:1,2003-03-04T11:00:00Z,26.2168,-96.4998,2.0,258.306886,17.31940241,-99999.0,'11111222,11111222,99999999' 
TABS,ioos:station:wmo:42045:1,2003-03-04T11:30:00Z,26.2168,-96.4998,2.0,272.7504997,13.7558424,-99999.0,'11111222,11111222,99999999' 
TABS,ioos:station:wmo:42045:1,2003-03-04T12:00:00Z,26.2168,-96.4998,2.0,271.0884816,12.11218395,-99999.0,'11111222,11111222,99999999' 
TABS,ioos:station:wmo:42045:1,2003-03-04T12:30:00Z,26.2168,-96.4998,2.0,280.5231939,7.994448074,-99999.0,'11133222,11111222,99999999' 
TABS,ioos:station:wmo:42045:1,2003-03-04T13:00:00Z,26.2168,-96.4998,2.0,301.0612611,11.12512921,-99999.0,'11111222,11111222,99999999' 
TABS,ioos:station:wmo:42045:1,2003-03-04T13:30:00Z,26.2168,-96.4998,2.0,313.3779969,9.740764857,-99999.0,'11133222,11111222,99999999' 
TABS,ioos:station:wmo:42045:1,2003-03-04T14:00:00Z,26.2168,-96.4998,2.0,337.8937865,5.58022401,-99999.0,'11133222,11111222,99999999' 
TABS,ioos:station:wmo:42045:1,2003-03-04T14:30:00Z,26.2168,-96.4998,2.0,330.9456743,4.530077262,-99999.0,'11133222,11111222,99999999' 
TABS,ioos:station:wmo:42045:1,2003-03-04T15:00:00Z,26.2168,-96.4998,2.0,338.8245206,3.571134274,-99999.0,'11133222,11111222,99999999' 
TABS,ioos:station:wmo:42045:1,2003-03-04T15:30:00Z,26.2168,-96.4998,2.0,31.87835237,4.29830199,-99999.0,'11133222,11111222,99999999' 
TABS,ioos:station:wmo:42045:1,2003-03-04T16:00:00Z,26.2168,-96.4998,2.0,47.98932985,5.423817844,-99999.0,'11133222,11111222,99999999' 